Home   Weather   Hinckley   Past weeks

Flag for United Kingdom Past Weather in Hinckley, England, United Kingdom — Yesterday and Last 2 Weeks

Now
39 °F

Chilly.


Feels Like: 39 °F
Forecast: 40 / 46 °F
Wind: No wind

Location: Church Lawford

Current Time: Jan 19, 2017 at 2:45:13 am

Latest Report: Jan 19, 2017 at 1:00 am


Visibility: 1 mi

Pressure: 30.66 "Hg

Humidity: 99%

Dew Point: 39 °F

Location of HinckleyLocation

Past Weather in Hinckley — Graph

°F

Hinckley Temperature Yesterday

Maximum temperature yesterday: 39 °F (at 12:00 pm)
Minimum temperature yesterday: 37 °F (at 7:00 am)
Average temperature yesterday: 38 °F

High & Low Weather Summary for the Past Weeks

 TemperatureHumidityPressure
High51 °F (Jan 11, 7:00 am)100% (Jan 7, 12:00 am)30.67 "Hg (Jan 7, 12:00 am)
Low24 °F (Jan 5, 7:00 am)58% (Jan 11, 4:00 pm)29.41 "Hg (Jan 12, 5:00 pm)
Average40 °F92%30.24 "Hg
* Reported Jan 4 1:00 am — Jan 19 1:00 am, Hinckley, Weather by CustomWeather, © 2017

Note: Actual official high and low records may vary slightly from our data, if they occured in-between our weather recording intervals... More about our weather records

Advertising

Hinckley Weather History for the Previous 24 Hours

Scroll right to see more
 ConditionsComfort  
Time TempWeatherWind HumidityBarometerVisibility
1:00 am
Thu, Jan 19
39 °FChilly.No wind99%30.66 "Hg1 mi
12:00 am39 °FFog.No wind99%30.66 "Hg1 mi
11:00 pm
Wed, Jan 18
39 °FFog.1 mph99%30.66 "Hg1 mi
10:00 pm39 °FFog.2 mph99%30.66 "Hg1 mi
9:00 pm39 °FFog.1 mph99%30.67 "Hg1 mi
8:00 pm39 °FFog.2 mph99%30.67 "Hg1 mi
7:00 pm39 °FFog.2 mph99%30.67 "Hg1 mi
6:00 pm39 °FChilly.1 mph100%30.66 "Hg1 mi
5:00 pm39 °FFog.2 mph99%30.66 "Hg1 mi
4:00 pm39 °FFog.2 mph98%30.66 "Hg1 mi
3:00 pm39 °FFog.2 mph98%30.66 "Hg1 mi
2:00 pm39 °FChilly.2 mph98%30.66 "Hg1 mi
1:00 pm39 °FFog.3 mph96%30.66 "Hg1 mi
12:00 pm39 °FSmoke.3 mph92%30.67 "Hg3 mi
11:00 am38 °FSmoke.3 mph90%30.67 "Hg4 mi
10:00 am38 °FSmoke.3 mph91%30.67 "Hg3 mi
8:00 am37 °FSmoke.2 mph91%30.65 "Hg3 mi
7:00 am37 °FSmoke.2 mph92%30.64 "Hg3 mi
5:00 am37 °FSmoke.5 mph89%30.63 "Hg4 mi
4:00 am38 °FSmoke.5 mph86%30.64 "Hg6 mi
3:00 am38 °FChilly.2 mph86%30.63 "Hg7 mi
2:00 am38 °FChilly.3 mph84%30.64 "Hg7 mi
Weather by CustomWeather, © 2017

See weather overviewHow to use our weather pages